EN

Hourly Weather Laczkowice

Today, 5 August, Thursday

Time Temperature Precipitation Wind Pressure Humidity
00:00 +15°C° 0 mm 1 mps 742 mmHg 90%
01:00 +15°C° 0 mm 1 mps 741 mmHg 91%
02:00 +14°C° 0 mm 2 mps 741 mmHg 91%
03:00 +14°C° 0 mm 2 mps 741 mmHg 91%
04:00 +14°C° 0 mm 2 mps 741 mmHg 92%
05:00 +15°C° 0.6 mm 2 mps 740 mmHg 92%
06:00 +15°C° 0.6 mm 2 mps 740 mmHg 93%
07:00 +14°C° 0 mm 3 mps 740 mmHg 94%
08:00 +14°C° 1.3 mm 3 mps 740 mmHg 95%
09:00 +14°C° 1.3 mm 3 mps 740 mmHg 95%
10:00 +14°C° 1.3 mm 3 mps 739 mmHg 96%
11:00 +14°C° 1.2 mm 4 mps 739 mmHg 96%
12:00 +14°C° 1.2 mm 4 mps 739 mmHg 96%
13:00 +14°C° 0 mm 4 mps 738 mmHg 95%
14:00 +15°C° 1.2 mm 5 mps 738 mmHg 95%
15:00 +15°C° 1.2 mm 5 mps 737 mmHg 96%
16:00 +15°C° 1.2 mm 5 mps 736 mmHg 96%
17:00 +15°C° 3.4 mm 5 mps 736 mmHg 96%
18:00 +15°C° 3.4 mm 6 mps 735 mmHg 97%
19:00 +15°C° 3.4 mm 6 mps 735 mmHg 97%
20:00 +15°C° 3.5 mm 6 mps 734 mmHg 97%
21:00 +15°C° 3.5 mm 6 mps 734 mmHg 97%
22:00 +14°C° 3.5 mm 6 mps 733 mmHg 97%
23:00 +14°C° 3.1 mm 6 mps 733 mmHg 97%

Tomorrow, 6 August, Friday

Time Temperature Precipitation Wind Pressure Humidity
00:00 +14°C° 3.1 mm 6 mps 733 mmHg 97%
01:00 +14°C° 3.1 mm 6 mps 733 mmHg 97%
02:00 +14°C° 1.6 mm 7 mps 733 mmHg 96%
03:00 +14°C° 1.6 mm 7 mps 733 mmHg 96%
04:00 +14°C° 1.6 mm 7 mps 733 mmHg 96%
05:00 +14°C° 0.6 mm 7 mps 733 mmHg 95%
06:00 +14°C° 0.6 mm 7 mps 734 mmHg 94%
07:00 +14°C° 0.6 mm 6 mps 734 mmHg 94%
08:00 +14°C° 0.1 mm 6 mps 734 mmHg 89%
09:00 +15°C° 0.1 mm 6 mps 735 mmHg 84%
10:00 +15°C° 0.1 mm 6 mps 735 mmHg 80%
11:00 +16°C° 0 mm 6 mps 736 mmHg 72%
12:00 +17°C° 0 mm 7 mps 736 mmHg 65%
13:00 +18°C° 0 mm 7 mps 736 mmHg 58%
14:00 +19°C° 0 mm 6 mps 736 mmHg 57%
15:00 +19°C° 0 mm 5 mps 736 mmHg 57%
16:00 +19°C° 0 mm 5 mps 736 mmHg 57%
17:00 +18°C° 0 mm 4 mps 737 mmHg 63%
18:00 +17°C° 0 mm 3 mps 737 mmHg 69%
19:00 +16°C° 0 mm 2 mps 737 mmHg 75%
20:00 +15°C° 0 mm 2 mps 737 mmHg 77%
21:00 +15°C° 0 mm 1 mps 737 mmHg 78%
22:00 +14°C° 0 mm 1 mps 737 mmHg 80%
23:00 +14°C° 0 mm 1 mps 737 mmHg 80%

Day after tomorrow, 7 August, Saturday

Time Temperature Precipitation Wind Pressure Humidity
00:00 +14°C° 0 mm 1 mps 737 mmHg 80%
01:00 +14°C° 0 mm 1 mps 737 mmHg 80%
02:00 +14°C° 0 mm 2 mps 737 mmHg 83%
03:00 +14°C° 0 mm 2 mps 737 mmHg 85%
04:00 +13°C° 0 mm 3 mps 738 mmHg 88%
05:00 +15°C° 0 mm 4 mps 738 mmHg 85%
06:00 +17°C° 0 mm 4 mps 738 mmHg 81%
07:00 +17°C° 0 mm 5 mps 738 mmHg 78%
08:00 +20°C° 0 mm 5 mps 739 mmHg 72%
09:00 +21°C° 0 mm 5 mps 739 mmHg 66%
10:00 +23°C° 0 mm 5 mps 739 mmHg 60%
11:00 +25°C° 0 mm 5 mps 739 mmHg 56%
12:00 +25°C° 0 mm 5 mps 739 mmHg 52%
13:00 +26°C° 0 mm 4 mps 739 mmHg 47%
14:00 +27°C° 0 mm 4 mps 739 mmHg 46%
15:00 +27°C° 0 mm 3 mps 739 mmHg 45%
16:00 +27°C° 0 mm 3 mps 739 mmHg 44%
17:00 +25°C° 0 mm 2 mps 739 mmHg 51%
18:00 +24°C° 0 mm 2 mps 739 mmHg 58%
19:00 +21°C° 0 mm 2 mps 739 mmHg 65%
20:00 +21°C° 0 mm 2 mps 739 mmHg 67%
21:00 +20°C° 0 mm 3 mps 739 mmHg 69%
22:00 +19°C° 0 mm 3 mps 739 mmHg 72%
23:00 +19°C° 0 mm 4 mps 738 mmHg 71%

8 August, Sunday

Time Temperature Precipitation Wind Pressure Humidity
00:00 +19°C° 0 mm 4 mps 738 mmHg 70%
01:00 +19°C° 0 mm 5 mps 738 mmHg 70%
02:00 +19°C° 0 mm 5 mps 737 mmHg 69%
03:00 +19°C° 0 mm 5 mps 737 mmHg 68%
04:00 +19°C° 0 mm 5 mps 736 mmHg 68%
05:00 +20°C° 0 mm 5 mps 737 mmHg 67%
06:00 +21°C° 0 mm 6 mps 737 mmHg 66%
07:00 +22°C° 0 mm 6 mps 737 mmHg 65%
08:00 +21°C° 0 mm 7 mps 738 mmHg 67%
09:00 +21°C° 0 mm 7 mps 739 mmHg 69%
10:00 +21°C° 0 mm 7 mps 740 mmHg 71%
11:00 +21°C° 0 mm 7 mps 741 mmHg 67%
12:00 +22°C° 0 mm 6 mps 741 mmHg 63%
13:00 +23°C° 0 mm 5 mps 742 mmHg 60%
14:00 +25°C° 0 mm 4 mps 742 mmHg 56%
15:00 +25°C° 0 mm 4 mps 742 mmHg 53%
16:00 +26°C° 0 mm 3 mps 742 mmHg 50%
17:00 +25°C° 0 mm 2 mps 742 mmHg 54%
18:00 +24°C° 0 mm 1 mps 743 mmHg 58%
19:00 +23°C° 0 mm 1 mps 743 mmHg 61%
20:00 +22°C° 0 mm 1 mps 743 mmHg 62%
21:00 +21°C° 0 mm 2 mps 744 mmHg 63%
22:00 +20°C° 0 mm 2 mps 744 mmHg 64%
23:00 +19°C° 0.9 mm 3 mps 744 mmHg 74%

9 August, Monday

Time Temperature Precipitation Wind Pressure Humidity
00:00 +17°C° 0.9 mm 4 mps 745 mmHg 83%
01:00 +15°C° 0.9 mm 4 mps 745 mmHg 92%
02:00 +15°C° 1.4 mm 4 mps 745 mmHg 92%
03:00 +16°C° 1.4 mm 3 mps 746 mmHg 93%
04:00 +16°C° 1.4 mm 2 mps 746 mmHg 93%
05:00 +16°C° 0 mm 2 mps 746 mmHg 89%
06:00 +17°C° 0 mm 3 mps 746 mmHg 86%
07:00 +17°C° 0 mm 3 mps 747 mmHg 82%
08:00 +19°C° 0 mm 3 mps 747 mmHg 75%
09:00 +20°C° 0 mm 2 mps 747 mmHg 68%
10:00 +21°C° 0 mm 2 mps 747 mmHg 60%
11:00 +23°C° 0 mm 2 mps 747 mmHg 57%
12:00 +24°C° 0 mm 2 mps 747 mmHg 53%
13:00 +25°C° 0 mm 2 mps 747 mmHg 49%
14:00 +25°C° 0 mm 2 mps 747 mmHg 48%
15:00 +25°C° 0 mm 2 mps 747 mmHg 46%
16:00 +25°C° 0 mm 2 mps 747 mmHg 45%
17:00 +24°C° 0 mm 2 mps 747 mmHg 51%
18:00 +22°C° 0 mm 1 mps 747 mmHg 57%
19:00 +21°C° 0 mm 1 mps 747 mmHg 62%
20:00 +20°C° 0 mm 1 mps 747 mmHg 64%
21:00 +20°C° 0 mm 1 mps 747 mmHg 66%
22:00 +19°C° 0 mm 1 mps 747 mmHg 68%
23:00 +18°C° 0 mm 1 mps 747 mmHg 70%

10 August, Tuesday

Time Temperature Precipitation Wind Pressure Humidity
00:00 +18°C° 0 mm 1 mps 747 mmHg 72%
01:00 +17°C° 0 mm 2 mps 747 mmHg 74%
02:00 +17°C° 0 mm 2 mps 747 mmHg 75%
03:00 +16°C° 0 mm 2 mps 747 mmHg 75%
04:00 +16°C° 0 mm 2 mps 746 mmHg 76%
05:00 +17°C° 0 mm 2 mps 747 mmHg 73%
06:00 +18°C° 0 mm 2 mps 747 mmHg 71%
07:00 +19°C° 0 mm 2 mps 747 mmHg 68%
08:00 +20°C° 0 mm 2 mps 747 mmHg 62%
09:00 +23°C° 0 mm 2 mps 747 mmHg 56%
10:00 +24°C° 0 mm 2 mps 746 mmHg 50%
11:00 +25°C° 0 mm 2 mps 746 mmHg 47%
12:00 +26°C° 0 mm 3 mps 746 mmHg 45%
13:00 +27°C° 0 mm 3 mps 746 mmHg 43%
14:00 +26°C° 0 mm 2 mps 746 mmHg 47%
15:00 +25°C° 0 mm 2 mps 745 mmHg 51%
16:00 +24°C° 0 mm 1 mps 745 mmHg 56%
17:00 +23°C° 0 mm 1 mps 745 mmHg 58%
18:00 +22°C° 0 mm 1 mps 745 mmHg 60%
19:00 +21°C° 0 mm 1 mps 745 mmHg 62%
20:00 +21°C° 0.1 mm 1 mps 745 mmHg 64%
21:00 +20°C° 0.1 mm 1 mps 745 mmHg 67%
22:00 +20°C° 0.1 mm 1 mps 745 mmHg 69%
23:00 +19°C° 0.6 mm 1 mps 746 mmHg 75%
Show more